Location: Lanoux
(43.1180°N, 1.4255°E)
Time: 09:34:44
(UTC+00:00)

ARIANE 6 FM1 Upper Stage - Pass Details

Date: 18 February 2026
Orbit: 523 x 607 km, 62.0° (Epoch: 7 March)

Event Time Altitude Azimuth Distance (km) Brightness Sun altitude
Rises 19:16:19 0° 316° (NW) 2,657 6.8 -20.2°
Reaches altitude 10° 19:18:34 10° 309° (NW) 1,767 5.9 -20.6°
Maximum altitude 19:22:20 44° 237° (WSW) 741 3.6 -21.3°
Enters shadow 19:24:27 22° 177° (S) 1,172 4.2 -21.7°
